Date String (YYYY-MM-DD hh:mm:ss) UTC,Instrument flags,Ambient pressure (hPa),Sample flow (lpm),Bypass flow (lpm),Sample temperature (°C),Ambient temperature (°C),ASC tube jacket temperature (°C),LED temperature (°C),Box temperature (°C),Sample RH (%),Span deviation,Mass concentration (μg/m³),Mass concentration (μg/m³),Mass concentration (μg/m³)
DateTimeUTC,F1_M11,P_M11,Q1_M11,Q2_M11,T1_M11,T2_M11,T3_M11,T4_M11,T5_M11,U1_M11,ZSPAN_M11,X0_M11,X2_M11,X1_M11
2023-03-09 06:00:00,,0822.7,4.98,0.00,22.6,23.0,00.0,31.2,24.6,17.0,-001.6,0019.88,0012.72,0012.24
2023-03-09 06:01:00,,0822.8,4.98,0.00,22.7,22.8,00.0,31.3,24.6,16.9,-001.7,0019.86,0012.70,0012.24
2023-03-09 06:02:00,,0822.8,5.03,0.00,22.7,22.4,00.0,31.3,24.6,16.9,-001.7,0019.94,0012.74,0012.26
2023-03-09 06:03:00,,0822.8,5.00,0.00,22.7,22.0,00.0,31.3,24.5,17.0,-001.8,0019.98,0012.77,0012.30
2023-03-09 06:04:00,,0822.8,5.00,0.00,22.7,21.7,00.0,31.3,24.4,17.0,-001.6,0020.06,0012.83,0012.36
2023-03-09 06:05:00,,0822.8,5.00,0.00,22.7,21.5,00.0,31.3,24.3,17.0,-001.5,0020.06,0012.86,0012.42
2023-03-09 06:06:00,,0822.8,5.00,0.00,22.6,21.3,00.0,31.3,24.3,17.0,-001.4,0020.09,0012.86,0012.44
2023-03-09 06:07:00,,0822.8,5.00,0.00,22.6,21.2,00.0,31.3,24.3,17.0,-001.4,0019.88,0012.89,0012.44
2023-03-09 06:08:00,,0822.8,5.00,0.00,22.6,21.0,00.0,31.3,24.3,17.1,-001.4,0019.71,0012.90,0012.44
2023-03-09 06:09:00,,0822.8,5.00,0.00,22.6,20.9,00.0,31.3,24.3,17.1,-001.3,0019.62,0012.87,0012.43
2023-03-09 06:10:00,,0822.7,4.99,0.00,22.6,20.8,00.0,31.3,24.2,17.1,-001.2,0019.59,0012.87,0012.43
2023-03-09 06:11:00,,0822.7,5.00,0.00,22.5,20.7,00.0,31.3,24.2,17.2,-001.2,0019.70,0012.92,0012.45
2023-03-09 06:12:00,,0822.6,4.98,0.00,22.5,20.7,00.0,31.3,24.1,17.2,-001.2,0019.80,0012.99,0012.49
2023-03-09 06:13:00,,0822.7,5.02,0.00,22.5,20.6,00.0,31.3,24.1,17.2,-001.4,0019.84,0013.00,0012.51
2023-03-09 06:14:00,,0822.8,4.98,0.00,22.4,20.5,00.0,31.3,24.1,17.2,-001.3,0019.85,0012.99,0012.50
2023-03-09 06:15:00,,0822.8,5.01,0.00,22.4,20.4,00.0,31.2,24.0,17.3,-001.3,0019.95,0012.98,0012.49
2023-03-09 06:16:00,,0822.9,4.99,0.00,22.4,20.4,00.0,31.2,23.9,17.3,-001.3,0019.98,0012.98,0012.48
2023-03-09 06:17:00,,0822.9,5.00,0.00,22.3,20.3,00.0,31.2,23.9,17.3,-001.3,0020.00,0013.00,0012.50
2023-03-09 06:18:00,,0822.8,5.00,0.00,22.3,20.3,00.0,31.2,23.9,17.3,-001.2,0019.93,0012.98,0012.51
2023-03-09 06:19:00,,0822.8,5.00,0.00,22.3,20.3,00.0,31.1,23.9,17.4,-001.2,0019.92,0012.97,0012.51
2023-03-09 06:20:00,,0822.8,5.00,0.00,22.3,21.0,00.0,31.1,24.0,17.3,-001.2,0019.94,0012.96,0012.50
2023-03-09 06:21:00,,0822.8,5.02,0.00,22.4,22.1,00.0,31.1,24.3,17.2,-001.3,0019.92,0012.96,0012.51
2023-03-09 06:22:00,,0822.8,5.00,0.00,22.5,22.9,00.0,31.1,24.5,17.1,-001.3,0019.80,0012.90,0012.49
2023-03-09 06:23:00,,0822.8,5.01,0.00,22.6,22.6,00.0,31.2,24.5,17.1,-001.2,0019.74,0012.88,0012.50
2023-03-09 06:24:00,,0822.7,5.00,0.00,22.6,22.1,00.0,31.2,24.4,17.1,-001.0,0019.70,0012.87,0012.49
2023-03-09 06:25:00,,0822.7,5.01,0.00,22.6,21.8,00.0,31.2,24.4,17.1,-001.1,0019.99,0012.89,0012.51
2023-03-09 06:26:00,,0822.6,5.00,0.00,22.6,21.5,00.0,31.2,24.3,17.1,-001.2,0019.91,0012.85,0012.48
2023-03-09 06:27:00,,0822.6,4.99,0.00,22.5,21.2,00.0,31.2,24.2,17.1,-001.2,0019.88,0012.82,0012.43
2023-03-09 06:28:00,,0822.7,5.00,0.00,22.5,21.1,00.0,31.2,24.2,17.1,-001.3,0019.84,0012.79,0012.40
2023-03-09 06:29:00,,0822.6,5.00,0.00,22.5,20.9,00.0,31.2,24.2,17.1,-001.1,0019.80,0012.77,0012.36
2023-03-09 06:30:00,,0822.6,5.00,0.00,22.5,20.8,00.0,31.2,24.1,17.1,-001.1,0019.81,0012.77,0012.34
2023-03-09 06:31:00,,0822.6,4.99,0.00,22.5,20.7,00.0,31.2,24.1,17.2,-001.0,0019.78,0012.77,0012.32
2023-03-09 06:32:00,,0822.6,5.00,0.00,22.4,20.7,00.0,31.2,24.1,17.2,-001.0,0019.72,0012.71,0012.26
2023-03-09 06:33:00,,0822.6,5.00,0.00,22.4,20.6,00.0,31.2,24.1,17.2,-000.8,0019.74,0012.67,0012.22
2023-03-09 06:34:00,,0822.5,5.00,0.00,22.4,20.6,00.0,31.2,24.1,17.2,-000.8,0019.60,0012.57,0012.12
2023-03-09 06:35:00,,0822.5,5.01,0.00,22.4,20.5,00.0,31.2,24.0,17.2,-000.9,0019.44,0012.48,0012.03
2023-03-09 06:36:00,,0822.6,5.00,0.00,22.4,20.5,00.0,31.1,24.0,17.2,-000.8,0019.04,0012.38,0011.93
2023-03-09 06:37:00,,0822.6,5.01,0.00,22.3,20.4,00.0,31.1,24.0,17.3,-000.8,0018.92,0012.34,0011.88
2023-03-09 06:38:00,,0822.5,5.01,0.00,22.3,20.5,00.0,31.1,24.0,17.3,-000.8,0018.86,0012.30,0011.84
2023-03-09 06:39:00,,0822.5,4.99,0.00,22.3,20.4,00.0,31.1,24.0,17.3,-000.6,0018.73,0012.24,0011.80
2023-03-09 06:40:00,,0822.6,4.99,0.00,22.3,20.4,00.0,31.1,24.0,17.3,-000.7,0018.72,0012.22,0011.78
2023-03-09 06:41:00,,0822.6,4.99,0.00,22.3,20.4,00.0,31.1,23.9,17.4,-000.8,0018.62,0012.15,0011.73
2023-03-09 06:42:00,,0822.6,5.01,0.00,22.3,20.6,00.0,31.0,24.0,17.4,-000.9,0018.46,0012.04,0011.65
2023-03-09 06:43:00,,0822.5,5.00,0.00,22.3,21.8,00.0,31.0,24.2,17.3,-001.0,0018.35,0011.98,0011.60
2023-03-09 06:44:00,,0822.5,5.02,0.00,22.5,22.9,00.0,31.1,24.5,17.2,-001.0,0018.18,0011.92,0011.54
2023-03-09 06:45:00,,0822.5,5.01,0.00,22.6,22.9,00.0,31.1,24.5,17.1,-001.0,0018.17,0011.89,0011.51
2023-03-09 06:46:00,,0822.6,4.95,0.00,22.6,22.5,00.0,31.1,24.5,17.1,-000.9,0018.19,0011.89,0011.52
2023-03-09 06:47:00,,0822.6,5.01,0.00,22.6,22.0,00.0,31.2,24.4,17.1,-000.8,0018.16,0011.90,0011.54
2023-03-09 06:48:00,,0822.5,5.00,0.00,22.6,21.7,00.0,31.2,24.3,17.0,-000.7,0018.07,0011.87,0011.52
2023-03-09 06:49:00,,0822.6,4.99,0.00,22.5,21.4,00.0,31.2,24.3,17.1,-000.7,0017.98,0011.83,0011.46
2023-03-09 06:50:00,,0822.6,5.00,0.00,22.5,21.2,00.0,31.2,24.3,17.1,-000.8,0017.90,0011.77,0011.40
2023-03-09 06:51:00,,0822.6,5.01,0.00,22.5,21.0,00.0,31.2,24.2,17.1,-000.8,0017.88,0011.76,0011.38
2023-03-09 06:52:00,,0822.5,5.00,0.00,22.5,20.9,00.0,31.2,24.2,17.1,-000.6,0017.80,0011.73,0011.36
2023-03-09 06:53:00,,0822.5,5.00,0.00,22.4,20.8,00.0,31.2,24.2,17.1,-000.6,0017.79,0011.72,0011.34
2023-03-09 06:54:00,,0822.4,5.00,0.00,22.4,20.7,00.0,31.2,24.1,17.2,-000.5,0017.81,0011.75,0011.36
2023-03-09 06:55:00,,0822.4,5.01,0.00,22.4,20.6,00.0,31.2,24.1,17.2,-000.6,0017.87,0011.77,0011.37
2023-03-09 06:56:00,,0822.4,5.00,0.00,22.4,20.6,00.0,31.2,24.1,17.2,-000.6,0017.91,0011.80,0011.40
2023-03-09 06:57:00,,0822.4,5.01,0.00,22.4,20.5,00.0,31.1,24.0,17.2,-000.6,0017.91,0011.79,0011.39
2023-03-09 06:58:00,,0822.5,5.00,0.00,22.3,20.5,00.0,31.1,24.0,17.3,-000.7,0017.98,0011.82,0011.40
2023-03-09 06:59:00,,0822.4,5.01,0.00,22.3,20.4,00.0,31.1,24.0,17.3,-000.9,0018.11,0011.88,0011.44
